Massena, NY

11:33 PM EDT on March 24, 2017 (GMT -0400)
Massena International-Richards

Weather History for KMSS - June, 2013

Change the Weather History Date:

Wednesday, June 5, 2013

  Actual Average Record
Temperature  
Mean Temperature 54 °F 61 °F  
Max Temperature 66 °F 73 °F 88 °F (1974)
Min Temperature 41 °F 50 °F 36 °F (1964)
Degree Days  
Heating Degree Days 12 5  
Month to date heating degree days 27  
Since 1 June heating degree days 27  
Since 1 July heating degree days 8128  
Cooling Degree Days 0 1  
Month to date cooling degree days 18 5  
Year to date cooling degree days 41 19  
Since 1 June cooling degree days 18 5  
Growing Degree Days 4 (Base 50)    
Moisture  
Dew Point 42 °F    
Average Humidity 65    
Maximum Humidity 96    
Minimum Humidity 34    
Precipitation  
Precipitation 0.00 in 0.12 in 1.81 in (2016)
Month to date precipitation 1.29 0.55  
Year to date precipitation 9.59 12.48  
Sea Level Pressure  
Sea Level Pressure 30.20 in    
Wind  
Wind Speed 2 mph (NNW)    
Max Wind Speed 10 mph    
Max Gust Speed 13 mph    
Visibility 7 miles    
Events      
T = Trace of Precipitation, MM = Missing Value Source: NWS Daily Summary

Daily Weather History Graph

Daily Weather History Graph

Search for Another Location

Airport or City:

Trip Planner

Search our weather history database for the weather conditions in past years. The results will help you decide how hot, cold, wet, or windy it might be!

Date:

Astronomy

Jun. 05, 2013 Rise Set
Actual Time 5:14 AM EDT 8:42 PM EDT
Civil Twilight 4:37 AM EDT 9:18 PM EDT
Nautical Twilight 3:49 AM EDT 10:07 PM EDT
Astronomical Twilight 2:47 AM EDT 11:09 PM EDT
Moon 3:23 AM EDT (6/5) 6:00 PM EDT (6/5)
Length of Visible Light 16h 41m
Length of Day
15h 27m
Waning Crescent, 8% of the Moon is Illuminated
Jun 5
Waning Crescent
Jun 8
New
Jun 16
First Quarter
Jun 23
Full
Jun 30
Last Quarter

Hourly Weather History & Observations

Time (EDT) Temp. Dew Point Humidity Pressure Visibility Wind Dir Wind Speed Gust Speed Precip Events Conditions
12:53 AM 48.0 °F 43.0 °F 83% 30.14 in 10.0 mi Calm Calm - N/A   Clear
1:53 AM 46.9 °F 43.0 °F 86% 30.15 in 10.0 mi Calm Calm - N/A   Clear
2:53 AM 45.0 °F 43.0 °F 93% 30.17 in 10.0 mi Calm Calm - N/A   Clear
3:38 AM 44.6 °F 42.8 °F 93% 30.17 in 1.2 mi Calm Calm - N/A   Clear
3:46 AM 44.6 °F 42.8 °F 93% 30.18 in 0.8 mi Calm Calm - N/A   Clear
3:48 AM 44.6 °F 42.8 °F 93% 30.18 in 1.5 mi Calm Calm - N/A   Clear
3:50 AM 44.6 °F 42.8 °F 93% 30.18 in 3.0 mi Calm Calm - N/A   Clear
3:53 AM 43.0 °F 41.0 °F 93% 30.19 in 5.0 mi Calm Calm - N/A   Clear
4:25 AM 41.0 °F 41.0 °F 100% 30.20 in 1.8 mi Calm Calm - N/A   Clear
4:32 AM 42.8 °F 39.2 °F 87% 30.19 in 3.0 mi Calm Calm - N/A   Clear
4:53 AM 42.1 °F 39.0 °F 89% 30.20 in 10.0 mi Calm Calm - N/A   Clear
5:01 AM 42.8 °F 39.2 °F 87% 30.20 in 1.5 mi Calm Calm - N/A   Clear
5:10 AM 42.8 °F 39.2 °F 87% 30.20 in 3.0 mi Calm Calm - N/A   Clear
5:34 AM 42.8 °F 39.2 °F 87% 30.21 in 1.5 mi Calm Calm - N/A   Clear
5:36 AM 42.8 °F 39.2 °F 87% 30.21 in 0.8 mi Calm Calm - N/A   Clear
5:48 AM 42.8 °F 41.0 °F 93% 30.21 in 3.0 mi Calm Calm - N/A   Clear
5:53 AM 42.1 °F 41.0 °F 96% 30.22 in 10.0 mi Calm Calm - N/A   Clear
6:53 AM 48.9 °F 45.0 °F 86% 30.23 in 10.0 mi Calm Calm - N/A   Clear
7:53 AM 53.1 °F 43.0 °F 69% 30.25 in 10.0 mi Calm Calm - N/A   Clear
8:53 AM 57.0 °F 42.1 °F 57% 30.25 in 10.0 mi NE 6.9 mph - N/A   Clear
9:53 AM 59.0 °F 42.1 °F 53% 30.24 in 10.0 mi Variable 3.5 mph - N/A   Clear
10:53 AM 61.0 °F 39.9 °F 46% 30.23 in 10.0 mi North 4.6 mph - N/A   Clear
11:53 AM 63.0 °F 43.0 °F 48% 30.24 in 10.0 mi West 6.9 mph - N/A   Clear
12:53 PM 63.0 °F 37.9 °F 40% 30.23 in 10.0 mi West 6.9 mph - N/A   Clear
1:53 PM 64.9 °F 39.9 °F 40% 30.22 in 10.0 mi WNW 6.9 mph - N/A   Clear
2:53 PM 66.0 °F 37.9 °F 36% 30.19 in 10.0 mi Calm Calm - N/A   Clear
3:53 PM 63.0 °F 37.9 °F 40% 30.17 in 10.0 mi NNW 6.9 mph - N/A   Clear
4:53 PM 61.0 °F 39.0 °F 44% 30.18 in 10.0 mi NNW 5.8 mph - N/A   Clear
5:53 PM 61.0 °F 41.0 °F 48% 30.19 in 10.0 mi North 4.6 mph - N/A   Clear
6:53 PM 61.0 °F 37.9 °F 42% 30.17 in 10.0 mi Calm Calm - N/A   Clear
7:53 PM 59.0 °F 42.1 °F 53% 30.17 in 10.0 mi Calm Calm - N/A   Clear
8:53 PM 55.9 °F 46.9 °F 72% 30.17 in 10.0 mi Calm Calm - N/A   Clear
9:53 PM 54.0 °F 48.0 °F 80% 30.18 in 10.0 mi Calm Calm - N/A   Clear
10:53 PM 53.1 °F 48.0 °F 83% 30.18 in 10.0 mi Calm Calm - N/A   Clear
11:53 PM 51.1 °F 46.9 °F 86% 30.17 in 10.0 mi Calm Calm - N/A   Partly Cloudy